| time (UTC) | temp F | wind direction | speed MPH | gust MPH | rain 1hr in | rain 24hr in | rain mn in | humidity % | barometer mb |
| 20260901222806 | 95 | 274 | 1.0 | 4.0 | 0.00 | 0.00 | 0.00 | 43 | 1013.6 |
| 20260901221248 | 96 | 265 | 1.0 | 3.0 | 0.00 | 0.00 | 0.00 | 43 | 1013.5 |
| 20260901220742 | 95 | 300 | 1.0 | 4.0 | 0.00 | 0.00 | 0.00 | 44 | 1013.5 |
| 20260901215731 | 95 | 244 | 2.0 | 7.0 | 0.00 | 0.00 | 0.00 | 43 | 1013.5 |
| 20260901215223 | 96 | 248 | 2.0 | 6.0 | 0.00 | 0.00 | 0.00 | 42 | 1013.3 |
| 20260901214718 | 96 | 273 | 2.0 | 6.0 | 0.00 | 0.00 | 0.00 | 42 | 1013.3 |
| 20260901214213 | 95 | 259 | 2.0 | 6.0 | 0.00 | 0.00 | 0.00 | 42 | 1013.3 |
| 20260901213706 | 96 | 180 | 2.0 | 6.0 | 0.00 | 0.00 | 0.00 | 43 | 1013.4 |
| 20260901212655 | 95 | 265 | 3.0 | 7.0 | 0.00 | 0.00 | 0.00 | 42 | 1013.3 |
| 20260901212148 | 95 | 250 | 2.0 | 7.0 | 0.00 | 0.00 | 0.00 | 41 | 1013.4 |
| 20260901211642 | 96 | 236 | 2.0 | 8.0 | 0.00 | 0.00 | 0.00 | 40 | 1013.4 |
| 20260901211138 | 96 | 311 | 2.0 | 9.0 | 0.00 | 0.00 | 0.00 | 42 | 1013.4 |
| 20260901210124 | 96 | 240 | 3.0 | 9.0 | 0.00 | 0.00 | 0.00 | 42 | 1013.4 |
| 20260901205618 | 96 | 247 | 3.0 | 9.0 | 0.00 | 0.00 | 0.00 | 42 | 1013.5 |
| 20260901205114 | 96 | 302 | 3.0 | 9.0 | 0.00 | 0.00 | 0.00 | 42 | 1013.5 |
| 20260901204606 | 96 | 269 | 2.0 | 7.0 | 0.00 | 0.00 | 0.00 | 40 | 1013.5 |
| 20260901204059 | 96 | 219 | 2.0 | 4.0 | 0.00 | 0.00 | 0.00 | 41 | 1013.5 |
| 20260901203553 | 96 | 279 | 3.0 | 9.0 | 0.00 | 0.00 | 0.00 | 41 | 1013.5 |
| 20260901203048 | 95 | 263 | 3.0 | 10.0 | 0.00 | 0.00 | 0.00 | 41 | 1013.6 |
| 20260901202542 | 97 | 290 | 3.0 | 7.0 | 0.00 | 0.00 | 0.00 | 41 | 1013.6 |
| 20260901201530 | 96 | 277 | 3.0 | 9.0 | 0.00 | 0.00 | 0.00 | 43 | 1013.6 |
| 20260901201024 | 96 | 250 | 3.0 | 8.0 | 0.00 | 0.00 | 0.00 | 42 | 1013.7 |
| 20260901195506 | 96 | 184 | 2.0 | 7.0 | 0.00 | 0.00 | 0.00 | 42 | 1013.8 |
| 20260901195001 | 96 | 229 | 2.0 | 6.0 | 0.00 | 0.00 | 0.00 | 42 | 1013.8 |
| 20260901194454 | 96 | 272 | 3.0 | 8.0 | 0.00 | 0.00 | 0.00 | 42 | 1013.8 |
| 20260901193951 | 95 | 275 | 2.0 | 10.0 | 0.00 | 0.00 | 0.00 | 42 | 1013.9 |
| 20260901193451 | 95 | 297 | 2.0 | 10.0 | 0.00 | 0.00 | 0.00 | 43 | 1013.9 |
| 20260901192950 | 95 | 215 | 2.0 | 8.0 | 0.00 | 0.00 | 0.00 | 44 | 1014.0 |
| 20260901192450 | 95 | 257 | 2.0 | 8.0 | 0.00 | 0.00 | 0.00 | 43 | 1014.0 |
| 20260901191951 | 94 | 213 | 3.0 | 9.0 | 0.00 | 0.00 | 0.00 | 44 | 1014.0 |
| 20260901191448 | 94 | 269 | 3.0 | 9.0 | 0.00 | 0.00 | 0.00 | 45 | 1014.1 |
| 20260901190945 | 95 | 257 | 3.0 | 8.0 | 0.00 | 0.00 | 0.00 | 45 | 1014.1 |
| 20260901190447 | 95 | 205 | 3.0 | 9.0 | 0.00 | 0.00 | 0.00 | 43 | 1014.2 |
| 20260901185945 | 94 | 280 | 4.0 | 9.0 | 0.00 | 0.00 | 0.00 | 45 | 1014.2 |
| 20260901185444 | 93 | 286 | 4.0 | 9.0 | 0.00 | 0.00 | 0.00 | 44 | 1014.2 |
| 20260901184943 | 94 | 253 | 3.0 | 8.0 | 0.00 | 0.00 | 0.00 | 46 | 1014.2 |
| 20260901183945 | 94 | 228 | 2.0 | 9.0 | 0.00 | 0.00 | 0.00 | 45 | 1014.2 |
| 20260901183443 | 94 | 342 | 3.0 | 9.0 | 0.00 | 0.00 | 0.00 | 46 | 1014.2 |
| 20260901182944 | 95 | 227 | 3.0 | 9.0 | 0.00 | 0.00 | 0.00 | 45 | 1014.2 |
| 20260901182443 | 94 | 291 | 3.0 | 8.0 | 0.00 | 0.00 | 0.00 | 47 | 1014.1 |
| 20260901181941 | 93 | 248 | 3.0 | 7.0 | 0.00 | 0.00 | 0.00 | 48 | 1014.1 |
| 20260901181441 | 94 | 307 | 3.0 | 8.0 | 0.00 | 0.00 | 0.00 | 47 | 1014.2 |
| 20260901180938 | 93 | 288 | 3.0 | 8.0 | 0.00 | 0.00 | 0.00 | 48 | 1014.2 |
| 20260901180437 | 93 | 275 | 2.0 | 7.0 | 0.00 | 0.00 | 0.00 | 47 | 1014.3 |
| 20260901175939 | 92 | 263 | 2.0 | 7.0 | 0.00 | 0.00 | 0.00 | 49 | 1014.3 |
| 20260901175441 | 92 | 259 | 3.0 | 8.0 | 0.00 | 0.00 | 0.00 | 47 | 1014.4 |
| 20260901174938 | 92 | 276 | 3.0 | 9.0 | 0.00 | 0.00 | 0.00 | 49 | 1014.4 |
| 20260901174437 | 92 | 246 | 3.0 | 9.0 | 0.00 | 0.00 | 0.00 | 48 | 1014.3 |
| 20260901173437 | 92 | 293 | 3.0 | 9.0 | 0.00 | 0.00 | 0.00 | 47 | 1014.5 |
| 20260901172940 | 92 | 207 | 2.0 | 6.0 | 0.00 | 0.00 | 0.00 | 49 | 1014.5 |
| 20260901172436 | 92 | 235 | 2.0 | 7.0 | 0.00 | 0.00 | 0.00 | 49 | 1014.5 |
| 20260901171934 | 91 | 267 | 4.0 | 7.0 | 0.00 | 0.00 | 0.00 | 51 | 1014.5 |
| 20260901171433 | 90 | 236 | 3.0 | 7.0 | 0.00 | 0.00 | 0.00 | 50 | 1014.5 |
| 20260901170933 | 92 | 296 | 2.0 | 7.0 | 0.00 | 0.00 | 0.00 | 48 | 1014.5 |
| 20260901170434 | 91 | 257 | 3.0 | 7.0 | 0.00 | 0.00 | 0.00 | 50 | 1014.6 |
| 20260901165433 | 90 | 262 | 2.0 | 6.0 | 0.00 | 0.00 | 0.00 | 50 | 1014.7 |
| 20260901164933 | 90 | 267 | 2.0 | 6.0 | 0.00 | 0.00 | 0.00 | 51 | 1014.7 |
| 20260901163432 | 88 | 269 | 3.0 | 8.0 | 0.00 | 0.00 | 0.00 | 53 | 1014.9 |
| 20260901162934 | 89 | 263 | 3.0 | 9.0 | 0.00 | 0.00 | 0.00 | 51 | 1014.9 |
| 20260901162436 | 89 | 273 | 5.0 | 9.0 | 0.00 | 0.00 | 0.00 | 52 | 1014.8 |
| 20260901161936 | 87 | 295 | 5.0 | 10.0 | 0.00 | 0.00 | 0.00 | 53 | 1014.9 |
| 20260901161437 | 88 | 279 | 3.0 | 10.0 | 0.00 | 0.00 | 0.00 | 52 | 1014.9 |
| 20260901160935 | 88 | 274 | 3.0 | 8.0 | 0.00 | 0.00 | 0.00 | 53 | 1015.0 |
| 20260901155434 | 87 | 267 | 3.0 | 7.0 | 0.00 | 0.00 | 0.00 | 53 | 1014.8 |
| 20260901154929 | 87 | 245 | 4.0 | 9.0 | 0.00 | 0.00 | 0.00 | 53 | 1014.8 |
| 20260901154429 | 87 | 267 | 4.0 | 9.0 | 0.00 | 0.00 | 0.00 | 53 | 1014.8 |
| 20260901153930 | 87 | 254 | 4.0 | 9.0 | 0.00 | 0.00 | 0.00 | 54 | 1014.8 |
| 20260901153431 | 86 | 271 | 5.0 | 11.0 | 0.00 | 0.00 | 0.00 | 54 | 1014.9 |
| 20260901152928 | 86 | 269 | 5.0 | 11.0 | 0.00 | 0.00 | 0.00 | 54 | 1014.9 |
| 20260901152428 | 86 | 278 | 4.0 | 9.0 | 0.00 | 0.00 | 0.00 | 55 | 1015.0 |
| 20260901151430 | 85 | 248 | 3.0 | 8.0 | 0.00 | 0.00 | 0.00 | 55 | 1014.9 |
| 20260901150930 | 85 | 269 | 3.0 | 8.0 | 0.00 | 0.00 | 0.00 | 56 | 1014.9 |
| 20260901150425 | 85 | 292 | 3.0 | 7.0 | 0.00 | 0.00 | 0.00 | 55 | 1014.8 |
| 20260901145926 | 85 | 283 | 3.0 | 7.0 | 0.00 | 0.00 | 0.00 | 57 | 1014.8 |
| 20260901145424 | 84 | 243 | 4.0 | 9.0 | 0.00 | 0.00 | 0.00 | 57 | 1014.8 |
| 20260901144925 | 83 | 283 | 4.0 | 9.0 | 0.00 | 0.00 | 0.00 | 57 | 1014.8 |
| 20260901144424 | 83 | 298 | 2.0 | 7.0 | 0.00 | 0.00 | 0.00 | 57 | 1014.7 |
| 20260901143927 | 83 | 246 | 1.0 | 6.0 | 0.00 | 0.00 | 0.00 | 58 | 1014.7 |
| 20260901143424 | 83 | 271 | 1.0 | 7.0 | 0.00 | 0.00 | 0.00 | 58 | 1014.8 |
| 20260901142925 | 83 | 238 | 2.0 | 9.0 | 0.00 | 0.00 | 0.00 | 58 | 1014.8 |
| 20260901142428 | 82 | 219 | 3.0 | 9.0 | 0.00 | 0.00 | 0.00 | 59 | 1014.8 |
| 20260901141920 | 82 | 211 | 3.0 | 9.0 | 0.00 | 0.00 | 0.00 | 59 | 1014.8 |
| 20260901141421 | 82 | 285 | 2.0 | 7.0 | 0.00 | 0.00 | 0.00 | 59 | 1014.8 |
| 20260901140921 | 82 | 260 | 2.0 | 7.0 | 0.00 | 0.00 | 0.00 | 60 | 1014.8 |
| 20260901140422 | 81 | 244 | 2.0 | 7.0 | 0.00 | 0.00 | 0.00 | 59 | 1014.8 |
| 20260901135922 | 81 | 234 | 2.0 | 8.0 | 0.00 | 0.00 | 0.00 | 61 | 1014.8 |
| 20260901135421 | 81 | 215 | 2.0 | 8.0 | 0.00 | 0.00 | 0.00 | 61 | 1014.7 |
| 20260901134926 | 80 | 259 | 1.0 | 4.0 | 0.00 | 0.00 | 0.00 | 61 | 1014.7 |
| 20260901134421 | 80 | 219 | 1.0 | 4.0 | 0.00 | 0.00 | 0.00 | 62 | 1014.7 |
| 20260901132416 | 78 | 146 | 0.0 | 4.0 | 0.00 | 0.00 | 0.00 | 65 | 1014.7 |
| 20260901131918 | 77 | 267 | 0.0 | 3.0 | 0.00 | 0.00 | 0.00 | 67 | 1014.7 |
| 20260901131417 | 76 | 175 | 0.0 | 3.0 | 0.00 | 0.00 | 0.00 | 70 | 1014.8 |
| 20260901130917 | 75 | 248 | 0.0 | 3.0 | 0.00 | 0.00 | 0.00 | 71 | 1014.8 |
| 20260901130419 | 75 | 153 | 0.0 | 1.0 | 0.00 | 0.00 | 0.00 | 71 | 1014.8 |
| 20260901125916 | 74 | 249 | 0.0 | 2.0 | 0.00 | 0.00 | 0.00 | 71 | 1014.9 |
| 20260901125420 | 74 | 250 | 0.0 | 2.0 | 0.00 | 0.00 | 0.00 | 71 | 1014.9 |
| 20260901124413 | 73 | 221 | 0.0 | 1.0 | 0.00 | 0.00 | 0.00 | 71 | 1014.8 |
| 20260901123913 | 73 | 268 | 0.0 | 2.0 | 0.00 | 0.00 | 0.00 | 71 | 1014.8 |
| 20260901123415 | 73 | 246 | 0.0 | 2.0 | 0.00 | 0.00 | 0.00 | 71 | 1014.8 |
| 20260901122914 | 73 | 155 | 0.0 | 3.0 | 0.00 | 0.00 | 0.00 | 71 | 1014.7 |
| 20260901122413 | 73 | 151 | 0.0 | 3.0 | 0.00 | 0.00 | 0.00 | 71 | 1014.7 |
| 20260901121914 | 73 | 182 | 0.0 | 0.0 | 0.00 | 0.00 | 0.00 | 71 | 1014.6 |
| 20260901120913 | 72 | 182 | 0.0 | 0.0 | 0.00 | 0.00 | 0.00 | 71 | 1014.5 |
| 20260901120412 | 72 | 182 | 0.0 | 0.0 | 0.00 | 0.00 | 0.00 | 70 | 1014.6 |
| 20260901115411 | 72 | 182 | 0.0 | 0.0 | 0.00 | 0.00 | 0.00 | 70 | 1014.5 |
| 20260901114908 | 72 | 180 | 0.0 | 1.0 | 0.00 | 0.00 | 0.00 | 70 | 1014.4 |
| 20260901114410 | 72 | 180 | 0.0 | 1.0 | 0.00 | 0.00 | 0.00 | 70 | 1014.4 |
| 20260901113409 | 72 | 180 | 0.0 | 3.0 | 0.00 | 0.00 | 0.00 | 70 | 1014.3 |
| 20260901112910 | 72 | 175 | 0.0 | 3.0 | 0.00 | 0.00 | 0.00 | 70 | 1014.2 |
| 20260901112411 | 72 | 163 | 0.0 | 0.0 | 0.00 | 0.00 | 0.00 | 70 | 1014.2 |
| 20260901111404 | 72 | 145 | 0.0 | 3.0 | 0.00 | 0.00 | 0.00 | 70 | 1014.1 |
| 20260901110905 | 72 | 133 | 0.0 | 3.0 | 0.00 | 0.00 | 0.00 | 70 | 1014.0 |
| 20260901110406 | 72 | 133 | 0.0 | 3.0 | 0.00 | 0.00 | 0.00 | 69 | 1014.0 |
| 20260901105905 | 72 | 179 | 0.0 | 0.0 | 0.00 | 0.00 | 0.00 | 69 | 1014.0 |
| 20260901104907 | 72 | 235 | 0.0 | 0.0 | 0.00 | 0.00 | 0.00 | 69 | 1014.1 |
| 20260901104404 | 72 | 232 | 0.0 | 2.0 | 0.00 | 0.00 | 0.00 | 69 | 1014.2 |
| 20260901103906 | 72 | 194 | 0.0 | 2.0 | 0.00 | 0.00 | 0.00 | 69 | 1014.1 |
| 20260901103401 | 72 | 235 | 0.0 | 2.0 | 0.00 | 0.00 | 0.00 | 69 | 1014.0 |
| 20260901102902 | 72 | 156 | 0.0 | 4.0 | 0.00 | 0.00 | 0.00 | 69 | 1014.1 |
| 20260901102400 | 72 | 161 | 0.0 | 4.0 | 0.00 | 0.00 | 0.00 | 69 | 1014.0 |
| 20260901101901 | 73 | 181 | 1.0 | 2.0 | 0.00 | 0.00 | 0.00 | 69 | 1014.0 |
| 20260901100900 | 73 | 224 | 0.0 | 3.0 | 0.00 | 0.00 | 0.00 | 68 | 1013.9 |
| 20260901100405 | 73 | 180 | 0.0 | 4.0 | 0.00 | 0.00 | 0.00 | 68 | 1013.9 |
| 20260901095900 | 73 | 202 | 0.0 | 4.0 | 0.00 | 0.00 | 0.00 | 68 | 1013.8 |
| 20260901095403 | 73 | 167 | 1.0 | 4.0 | 0.00 | 0.00 | 0.00 | 68 | 1013.9 |
| 20260901094901 | 73 | 168 | 1.0 | 4.0 | 0.00 | 0.00 | 0.00 | 68 | 1013.9 |
| 20260901094402 | 73 | 183 | 0.0 | 0.0 | 0.00 | 0.00 | 0.00 | 68 | 1013.9 |
| 20260901093901 | 73 | 197 | 0.0 | 0.0 | 0.00 | 0.00 | 0.00 | 68 | 1013.9 |
| 20260901093402 | 73 | 197 | 0.0 | 0.0 | 0.00 | 0.00 | 0.00 | 67 | 1013.9 |
| 20260901092900 | 73 | 215 | 0.0 | 0.0 | 0.00 | 0.00 | 0.00 | 67 | 1013.9 |
| 20260901092402 | 73 | 242 | 0.0 | 0.0 | 0.00 | 0.00 | 0.00 | 68 | 1013.9 |
| 20260901091901 | 73 | 160 | 0.0 | 0.0 | 0.00 | 0.00 | 0.00 | 67 | 1013.9 |
| 20260901091359 | 73 | 169 | 0.0 | 0.0 | 0.00 | 0.00 | 0.00 | 67 | 1013.9 |
| 20260901090358 | 73 | 175 | 0.0 | 0.0 | 0.00 | 0.00 | 0.00 | 67 | 1013.9 |
| 20260901085851 | 73 | 175 | 0.0 | 0.0 | 0.00 | 0.00 | 0.00 | 67 | 1013.9 |
| 20260901085346 | 73 | 250 | 0.0 | 0.0 | 0.00 | 0.00 | 0.00 | 67 | 1013.9 |
| 20260901084332 | 73 | 190 | 0.0 | 0.0 | 0.00 | 0.00 | 0.00 | 66 | 1014.0 |
| 20260901083827 | 73 | 184 | 0.0 | 0.0 | 0.00 | 0.00 | 0.00 | 66 | 1013.9 |
| 20260901083322 | 74 | 187 | 0.0 | 1.0 | 0.00 | 0.00 | 0.00 | 66 | 1014.0 |
| 20260901082815 | 74 | 0 | 0.0 | 1.0 | 0.00 | 0.00 | 0.00 | 66 | 1014.0 |
| 20260901082309 | 74 | 0 | 0.0 | 0.0 | 0.00 | 0.00 | 0.00 | 66 | 1013.9 |
| 20260901081257 | 74 | 219 | 0.0 | 1.0 | 0.00 | 0.00 | 0.00 | 66 | 1013.8 |
| 20260901080753 | 74 | 0 | 0.0 | 2.0 | 0.00 | 0.00 | 0.00 | 66 | 1013.8 |
| 20260901080245 | 74 | 171 | 0.0 | 2.0 | 0.00 | 0.00 | 0.00 | 66 | 1013.8 |
| 20260901075739 | 74 | 249 | 0.0 | 1.0 | 0.00 | 0.00 | 0.00 | 66 | 1013.7 |
| 20260901075233 | 74 | 220 | 0.0 | 1.0 | 0.00 | 0.00 | 0.00 | 66 | 1013.7 |
| 20260901074727 | 74 | 286 | 0.0 | 2.0 | 0.00 | 0.00 | 0.00 | 66 | 1013.7 |
| 20260901074220 | 74 | 101 | 0.0 | 2.0 | 0.00 | 0.00 | 0.00 | 66 | 1013.7 |
| 20260901073715 | 74 | 217 | 0.0 | 5.0 | 0.00 | 0.00 | 0.00 | 66 | 1013.7 |
| 20260901073211 | 74 | 133 | 0.0 | 5.0 | 0.00 | 0.00 | 0.00 | 66 | 1013.7 |
| 20260901072703 | 74 | 272 | 0.0 | 0.0 | 0.00 | 0.00 | 0.00 | 66 | 1013.7 |
| 20260901072157 | 74 | 0 | 0.0 | 1.0 | 0.00 | 0.00 | 0.00 | 66 | 1013.7 |
| 20260901071146 | 74 | 167 | 0.0 | 0.0 | 0.00 | 0.00 | 0.00 | 66 | 1013.6 |
| 20260901070639 | 74 | 146 | 0.0 | 0.0 | 0.00 | 0.00 | 0.00 | 66 | 1013.6 |
| 20260901065636 | 74 | 80 | 0.0 | 7.0 | 0.00 | 0.00 | 0.00 | 66 | 1013.6 |
| 20260901065135 | 74 | 212 | 0.0 | 7.0 | 0.00 | 0.00 | 0.00 | 66 | 1013.5 |
| 20260901064633 | 74 | 186 | 0.0 | 3.0 | 0.00 | 0.00 | 0.00 | 66 | 1013.5 |
| 20260901064133 | 75 | 152 | 0.0 | 2.0 | 0.00 | 0.00 | 0.00 | 66 | 1013.6 |
| 20260901063132 | 75 | 177 | 0.0 | 3.0 | 0.00 | 0.00 | 0.00 | 65 | 1013.6 |
| 20260901062636 | 75 | 218 | 0.0 | 2.0 | 0.00 | 0.00 | 0.00 | 65 | 1013.6 |
| 20260901062132 | 75 | 185 | 0.0 | 2.0 | 0.00 | 0.00 | 0.00 | 65 | 1013.6 |
| 20260901061133 | 75 | 157 | 0.0 | 1.0 | 0.00 | 0.00 | 0.00 | 65 | 1013.7 |
| 20260901060633 | 75 | 157 | 0.0 | 3.0 | 0.00 | 0.00 | 0.00 | 65 | 1013.7 |
| 20260901060131 | 75 | 157 | 0.0 | 3.0 | 0.00 | 0.00 | 0.00 | 65 | 1013.7 |
| 20260901055130 | 75 | 232 | 0.0 | 2.0 | 0.00 | 0.00 | 0.00 | 65 | 1013.7 |
| 20260901054628 | 75 | 246 | 0.0 | 0.0 | 0.00 | 0.00 | 0.00 | 65 | 1013.8 |
| 20260901054129 | 75 | 188 | 0.0 | 0.0 | 0.00 | 0.00 | 0.00 | 65 | 1013.7 |
| 20260901053125 | 75 | 198 | 0.0 | 0.0 | 0.00 | 0.00 | 0.00 | 65 | 1013.7 |
| 20260901052619 | 75 | 182 | 0.0 | 3.0 | 0.00 | 0.00 | 0.00 | 65 | 1013.7 |
| 20260901052113 | 75 | 272 | 0.0 | 3.0 | 0.00 | 0.00 | 0.00 | 64 | 1013.7 |
| 20260901051608 | 76 | 162 | 0.0 | 0.0 | 0.00 | 0.00 | 0.00 | 64 | 1013.7 |
| 20260901051101 | 76 | 161 | 0.0 | 0.0 | 0.00 | 0.00 | 0.00 | 64 | 1013.7 |
| 20260901050555 | 76 | 161 | 0.0 | 0.0 | 0.00 | 0.00 | 0.00 | 64 | 1013.7 |
| 20260901050050 | 76 | 161 | 0.0 | 1.0 | 0.00 | 0.00 | 0.00 | 64 | 1013.7 |
| 20260901045548 | 76 | 196 | 0.0 | 3.0 | 0.00 | 0.00 | 0.00 | 64 | 1013.7 |
| 20260901045047 | 76 | 221 | 0.0 | 3.0 | 0.00 | 0.00 | 0.00 | 64 | 1013.7 |
| 20260901044550 | 76 | 191 | 0.0 | 3.0 | 0.00 | 0.00 | 0.00 | 64 | 1013.7 |
| 20260901044047 | 76 | 165 | 1.0 | 4.0 | 0.00 | 0.00 | 0.00 | 64 | 1013.7 |
| 20260901043547 | 76 | 175 | 1.0 | 5.0 | 0.00 | 0.00 | 0.00 | 65 | 1013.7 |
| 20260901042544 | 76 | 159 | 1.0 | 5.0 | 0.00 | 0.00 | 0.00 | 65 | 1013.8 |
| 20260901041544 | 76 | 171 | 1.0 | 4.0 | 0.00 | 0.00 | 0.00 | 65 | 1013.8 |
| 20260901041044 | 76 | 161 | 1.0 | 4.0 | 0.00 | 0.00 | 0.00 | 65 | 1013.9 |
| 20260901040543 | 76 | 180 | 1.0 | 4.0 | 0.00 | 0.00 | 0.00 | 65 | 1013.9 |
| 20260901040042 | 76 | 154 | 1.0 | 4.0 | 0.00 | 0.00 | 0.00 | 65 | 1013.9 |
| 20260901035541 | 76 | 154 | 2.0 | 5.0 | 0.00 | 0.00 | 0.00 | 65 | 1013.9 |
| 20260901034539 | 76 | 159 | 3.0 | 6.0 | 0.00 | 0.00 | 0.00 | 65 | 1013.8 |
| 20260901034039 | 76 | 187 | 2.0 | 6.0 | 0.00 | 0.00 | 0.00 | 65 | 1013.8 |
| 20260901033535 | 76 | 179 | 2.0 | 6.0 | 0.00 | 0.00 | 0.00 | 66 | 1013.9 |
| 20260901033028 | 76 | 182 | 1.0 | 6.0 | 0.00 | 0.00 | 0.00 | 66 | 1013.8 |
| 20260901032522 | 76 | 180 | 1.0 | 4.0 | 0.00 | 0.00 | 0.00 | 66 | 1013.8 |
| 20260901032018 | 76 | 159 | 1.0 | 4.0 | 0.00 | 0.00 | 0.00 | 66 | 1013.9 |
| 20260901031510 | 76 | 180 | 0.0 | 3.0 | 0.00 | 0.00 | 0.00 | 66 | 1013.9 |
| 20260901030458 | 76 | 159 | 0.0 | 0.0 | 0.00 | 0.00 | 0.00 | 65 | 1014.0 |
| 20260901025953 | 76 | 159 | 0.0 | 0.0 | 0.00 | 0.00 | 0.00 | 65 | 1013.9 |
| 20260901025447 | 77 | 159 | 0.0 | 0.0 | 0.00 | 0.00 | 0.00 | 65 | 1013.9 |
| 20260901024940 | 77 | 0 | 0.0 | 1.0 | 0.00 | 0.00 | 0.00 | 64 | 1013.9 |
| 20260901024433 | 78 | 159 | 0.0 | 1.0 | 0.00 | 0.00 | 0.00 | 63 | 1014.0 |
| 20260901023928 | 78 | 159 | 0.0 | 0.0 | 0.00 | 0.00 | 0.00 | 62 | 1014.0 |
| 20260901023422 | 78 | 159 | 0.0 | 0.0 | 0.00 | 0.00 | 0.00 | 62 | 1014.1 |
| 20260901022916 | 78 | 159 | 0.0 | 0.0 | 0.00 | 0.00 | 0.00 | 61 | 1014.1 |
| 20260901022409 | 79 | 159 | 0.0 | 0.0 | 0.00 | 0.00 | 0.00 | 61 | 1014.1 |
| 20260901021904 | 79 | 159 | 0.0 | 0.0 | 0.00 | 0.00 | 0.00 | 61 | 1014.1 |
| 20260901020852 | 79 | 159 | 0.0 | 0.0 | 0.00 | 0.00 | 0.00 | 60 | 1014.0 |
| 20260901020346 | 80 | 159 | 0.0 | 0.0 | 0.00 | 0.00 | 0.00 | 60 | 1013.9 |
| 20260901015840 | 80 | 159 | 0.0 | 0.0 | 0.00 | 0.00 | 0.00 | 59 | 1014.0 |
| 20260901015335 | 80 | 159 | 0.0 | 0.0 | 0.00 | 0.00 | 0.00 | 59 | 1014.0 |
| 20260901014830 | 80 | 159 | 0.0 | 0.0 | 0.00 | 0.00 | 0.00 | 58 | 1014.0 |
| 20260901014323 | 80 | 159 | 0.0 | 0.0 | 0.00 | 0.00 | 0.00 | 58 | 1013.9 |
| 20260901013815 | 80 | 159 | 0.0 | 0.0 | 0.00 | 0.00 | 0.00 | 58 | 1013.8 |
| 20260901013310 | 80 | 159 | 0.0 | 0.0 | 0.00 | 0.00 | 0.00 | 58 | 1013.7 |
| 20260901012258 | 81 | 159 | 1.0 | 4.0 | 0.00 | 0.00 | 0.00 | 58 | 1013.7 |
| 20260901011752 | 81 | 159 | 1.0 | 4.0 | 0.00 | 0.00 | 0.00 | 58 | 1013.7 |
| 20260901011246 | 81 | 163 | 1.0 | 4.0 | 0.00 | 0.00 | 0.00 | 57 | 1013.6 |
| 20260901010744 | 82 | 164 | 1.0 | 4.0 | 0.00 | 0.00 | 0.00 | 57 | 1013.6 |
| 20260901010234 | 82 | 159 | 1.0 | 3.0 | 0.00 | 0.00 | 0.00 | 56 | 1013.5 |
| 20260901005222 | 83 | 195 | 1.0 | 3.0 | 0.00 | 0.00 | 0.00 | 55 | 1013.4 |
| 20260901004716 | 83 | 195 | 1.0 | 5.0 | 0.00 | 0.00 | 0.00 | 55 | 1013.3 |
| 20260901004210 | 83 | 175 | 1.0 | 5.0 | 0.00 | 0.00 | 0.00 | 55 | 1013.2 |
| 20260901003703 | 83 | 146 | 2.0 | 5.0 | 0.00 | 0.00 | 0.00 | 54 | 1013.1 |
| 20260901003158 | 84 | 170 | 2.0 | 5.0 | 0.00 | 0.00 | 0.00 | 53 | 1013.1 |
| 20260901002652 | 84 | 186 | 1.0 | 5.0 | 0.00 | 0.00 | 0.00 | 53 | 1012.9 |
| 20260901002148 | 85 | 160 | 1.0 | 6.0 | 0.00 | 0.00 | 0.00 | 53 | 1012.9 |
| 20260901001640 | 85 | 178 | 2.0 | 6.0 | 0.00 | 0.00 | 0.00 | 52 | 1012.8 |
| 20260901001134 | 85 | 162 | 2.0 | 5.0 | 0.00 | 0.00 | 0.00 | 52 | 1012.9 |
| 20260901000627 | 86 | 175 | 2.0 | 5.0 | 0.00 | 0.00 | 0.00 | 51 | 1012.8 |
| 20260901000123 | 86 | 167 | 2.0 | 6.0 | 0.00 | 0.00 | 0.00 | 51 | 1012.8 |
| 20260831235110 | 87 | 196 | 1.0 | 5.0 | 0.00 | 0.00 | 0.00 | 50 | 1012.8 |
| 20260831234605 | 87 | 186 | 2.0 | 5.0 | 0.00 | 0.00 | 0.00 | 50 | 1012.8 |
| 20260831234058 | 87 | 186 | 2.0 | 6.0 | 0.00 | 0.00 | 0.00 | 50 | 1012.8 |
| 20260831233551 | 87 | 198 | 2.0 | 6.0 | 0.00 | 0.00 | 0.00 | 49 | 1012.8 |
| 20260831233048 | 87 | 179 | 2.0 | 10.0 | 0.00 | 0.00 | 0.00 | 50 | 1012.8 |
| 20260831232037 | 87 | 158 | 3.0 | 9.0 | 0.00 | 0.00 | 0.00 | 49 | 1012.7 |
| 20260831231528 | 87 | 155 | 3.0 | 9.0 | 0.00 | 0.00 | 0.00 | 49 | 1012.6 |
| 20260831230516 | 87 | 153 | 3.0 | 8.0 | 0.00 | 0.00 | 0.00 | 49 | 1012.5 |
| 20260831230011 | 88 | 175 | 3.0 | 8.0 | 0.00 | 0.00 | 0.00 | 49 | 1012.4 |
| 20260831224958 | 88 | 142 | 4.0 | 12.0 | 0.00 | 0.00 | 0.00 | 49 | 1012.2 |
| 20260831224453 | 88 | 143 | 4.0 | 11.0 | 0.00 | 0.00 | 0.00 | 48 | 1012.2 |
| 20260831223947 | 88 | 180 | 5.0 | 12.0 | 0.00 | 0.00 | 0.00 | 48 | 1012.2 |
| 20260831223440 | 88 | 180 | 6.0 | 12.0 | 0.00 | 0.00 | 0.00 | 48 | 1012.2 |
| 20260831222933 | 89 | 201 | 5.0 | 12.0 | 0.00 | 0.00 | 0.00 | 49 | 1012.3 |